{"data":{"norad_id":63405,"intl_designator":"2025-065G","name":"STARLINK-33708","alt_names":[],"object_type":"PAYLOAD","status":"ACTIVE","operator":null,"country":"US","launch_date":"2025-03-31","launch_site_code":"AFETR","launch_vehicle":null,"mission":null,"orbit_class":"UNKNOWN","rcs_meters":null,"size_class":null,"mass_kg":null,"dimensions":null,"purposes":["comms"],"wikipedia_slug":null,"has_3d_model":false,"image_url":null,"decayed_at":null,"tle_current":{"epoch":"2026-05-24T18:01:19.956288Z","epoch_age_seconds":93232,"freshness":"FRESH","line1":"1 63405U 25065G   26144.75092542  .00023124  00000+0  84648-3 0  9991","line2":"2 63405  43.0036  37.4269 0000235 325.6797  34.4040 15.27608476 64478","mean_motion":15.27608476,"eccentricity":2.35e-5,"inclination_deg":43.0036,"raan_deg":37.4269,"arg_perigee_deg":325.6797,"mean_anomaly_deg":34.404,"bstar":0.00084648,"rev_number":6447,"period_min":94.264991496421,"perigee_km":482.80259410652,"apogee_km":483.12506584552,"semimajor_km":6861.100829976,"source":"CELESTRAK","updated_at":"2026-05-25T13:38:19.969260Z"}}}